Location: Pella
(41.4080°N, 92.9160°W)
Time: 19:23:48
(UTC-05:00)

Iridium 91 - Visible Passes

Search period start: 31 October 2014 00:00
Search period end: 09 November 2014 23:00
Orbit: 775 x 780 km, 86.4° (Epoch: 31 October)

Date Brightness Start Highest point End Pass type
(mag) Time Alt. Az. Time Alt. Az. Time Alt. Az.
31 Oct 7.8 20:27:22 12° N 20:27:22 12° N 20:27:41 10° N visible
01 Nov 8.3 06:48:23 10° NNE 06:51:48 17° ENE 06:55:12 10° ESE visible
01 Nov 7.3 19:44:27 10° SSE 19:53:03 14° NNE 19:53:49 10° NNE visible
01 Nov 8.1 21:25:33 10° SW 21:33:26 14° NNW 21:34:14 10° NNW visible
02 Nov 6.7 18:12:12 10° SE 18:17:31 17° NE 18:19:31 10° NE visible
02 Nov 6.4 19:51:10 10° SSW 19:56:10 47° W 20:01:12 10° N visible
03 Nov 7.3 17:41:53 10° E 17:42:43 10° ENE 17:43:32 10° ENE visible
03 Nov 5.4 19:17:22 10° S 19:22:35 87° W 19:27:49 10° N visible
04 Nov 8.0 05:47:50 10° NNE 05:52:05 25° ENE 05:56:17 10° SE visible
04 Nov 5.6 18:44:06 10° SSE 18:49:07 51° E 18:54:09 10° NNE visible
04 Nov 8.0 20:26:34 10° WSW 20:30:09 19° WNW 20:33:45 10° NNW visible
05 Nov 8.5 05:15:37 10° NE 05:18:12 14° ENE 05:20:47 10° ESE visible
05 Nov 6.3 18:11:25 10° SE 18:15:46 28° E 18:20:08 10° NNE visible
05 Nov 7.1 19:51:42 10° SW 19:56:21 33° W 20:01:02 10° NNW visible
06 Nov 6.1 06:20:46 10° N 06:25:57 64° E 06:31:06 10° SSE visible
06 Nov 7.0 17:39:35 10° ESE 17:42:33 16° ENE 17:45:31 10° NE visible
06 Nov 6.0 19:17:33 10° SSW 19:22:41 61° W 19:27:51 10° N visible
07 Nov 7.3 05:47:32 10° NNE 05:52:18 35° E 05:57:01 10° SSE visible
07 Nov 5.4 18:43:58 10° S 18:49:09 74° E 18:54:21 10° N visible
07 Nov 8.4 20:28:10 10° W 20:30:28 13° WNW 20:32:46 10° NW visible
08 Nov 8.2 05:14:46 10° NNE 05:18:31 20° ENE 05:22:14 10° ESE visible
08 Nov 5.9 18:10:55 10° SSE 18:15:44 40° E 18:20:33 10° NNE visible
08 Nov 7.7 19:52:28 10° SW 19:56:34 23° WNW 20:00:42 10° NNW visible
09 Nov 8.8 04:43:35 10° ENE 04:44:35 11° ENE 04:45:34 10° E visible
09 Nov 5.6 06:20:48 10° N 06:26:02 88° W 06:31:14 10° S visible
09 Nov 6.6 17:38:30 10° SE 17:42:26 22° E 17:46:22 10° NNE visible
09 Nov 6.7 19:17:56 10° SSW 19:22:50 42° W 19:27:46 10° NNW visible
